Regional Weather Roundup
Issued by NWS Green Bay, WI

Home | Current Version | Previous Version | Graphics & Text | Print | Product List | Glossary Off
Versions: 1 2 3 4 5 6 7 8 9 10 11 12 13 14 15 16 17 18 19 20 21 22 23 24 25 26 27 28 29 30 31 32 33 34 35 36 37 38 39 40 41 42 43 44 45 46 47 48 49 50

000
ASUS43 KGRB 230010
RWRGRB

NORTH-CENTRAL AND NORTHEAST WISCONSIN REGIONAL WEATHER ROUNDUP
NATIONAL WEATHER SERVICE GREEN BAY WI
700 PM CDT FRI AUG 22 2014

WIZ005-009-010>012-018-019-230100-
NORTH CENTRAL WISCONSIN

CITY           SKY/WX    TMP DP  RH WIND       PRES   REMARKS
IRONWOOD       CLOUDY    63  63 100 W6        30.00S
MANITOWISH WTR CLOUDY    69  69 100 CALM      30.02R FOG
ARBOR VITAE    MOCLDY    77  72  83 NW5       30.01R
EAGLE RIVER    CLOUDY    71  70  98 E5        30.01R
LAND O LAKES   CLOUDY    70  69  97 CALM      30.02S FOG
RHINELANDER    CLOUDY    73  69  87 CALM      30.01R
PHILLIPS       CLOUDY    72  69  91 N5        30.00R
ANTIGO         CLOUDY    73  71  95 NE5       30.01R FOG
TOMAHAWK       CLOUDY    73  69  89 CALM      30.01R FOG
MERRILL        CLOUDY    73  72  97 E3        29.99R FOG
$$

WIZ013-073-230100-
NORTHEAST WISCONSIN

CITY           SKY/WX    TMP DP  RH WIND       PRES   REMARKS
IRON MOUNTAIN  CLOUDY    74  69  85 SE6       29.99R
MARINETTE      MOCLDY    72  66  83 NE9       29.98R
OCONTO         MOCLDY    72  71  96 E6        29.97S
$$

WIZ017-030-035>037-045-230100-
CENTRAL WISCONSIN

CITY           SKY/WX    TMP DP  RH WIND       PRES   REMARKS
MEDFORD        MOCLDY    75  72  91 NE3       29.99R
WAUSAU         PTCLDY    78  73  84 NE6       29.96R
MOSINEE        PTCLDY    79  73  83 CALM      29.98R
MARSHFIELD     MOCLDY    83  73  72 NW3       29.96R
WISC RAPIDS    CLEAR     84  73  69 W3        29.96R HX  90
STEVENS POINT  CLEAR     81  72  75 CALM      29.96S
WAUPACA        PTCLDY    78  75  91 CALM      29.95R
SHAWANO        CLOUDY    79  72  79 E9        29.96S
CLINTONVILLE   LGT RAIN  79  72  78 E7        29.95R
$$

WIZ038-039-048-051-230100-
FOX VALLEY

CITY           SKY/WX    TMP DP  RH WIND       PRES   REMARKS
NWS GREEN BAY  PTCLDY    77  72  84 E10       29.96R
APPLETON       MOCLDY    79  72  78 E9        29.96R
OSHKOSH        PTCLDY    78  73  84 E7        29.95R
FOND DU LAC    PTCLDY    80  72  76 SE12      29.95R
$$

WIZ022-050-052-230100-
EAST CENTRAL WISCONSIN

CITY           SKY/WX    TMP DP  RH WIND       PRES   REMARKS
STURGEON BAY   MOCLDY    70  66  88 E6        30.00R
MANITOWOC      FOG       69  68  96 SE5       29.98S VSB 1/2
SHEBOYGAN      MOCLDY    71  68  90 NE7       29.98R
$$

LMZ563-521-522-541>543-230100-
LAKESHORE

STATION/POSITION TIME  TEMP    WIND        PRES    VSBY  WAVE
                       AIR SEA DIR/SP/G                  HT/PER
                 (UTC) (F)     (DEG/KT/KT) (MB)    (MI)  (FT/S)
SHEBOYGAN LKSHOR 0000   68 63   80/  5/  6 1015.2R
KEWAUNEE LKSHORE 0000   67      40/  4/  5 1014.4F
NORTHPORT PIER   0000   67      90/  5/  7 1015.6S
N MID LAKE BUOY  0000   68 66   80/  6/  8 1015.2F         0
S GREEN BAY BUOY 0000   72     VRB  8      1016.0R
SISTER BAY LKSHO 0000   69     130/  9/ 12   N/A
CHAMBERS ISLAND  0000   70      80/  8/ 11 1015.2R
MENOMINEE LKSHOR 0000   69      10/  6/  7 1015.8S
$$



USA.gov is the U.S. government's official web portal to all federal, state and local government web resources and services.